Location: Orinda
(37.8771°N, 122.1797°W)
Time: 10:58:12
(UTC+00:00)

Helios 1A Rocket - Pass Details

Date: 21 October 2019
Orbit: 565 x 586 km, 98.3° (Epoch: 17 November)

Event Time Altitude Azimuth Distance (km) Brightness Sun altitude
Rises 13:21:28 0° 15° (NNE) 2,822 6.6 -12.8°
Reaches altitude 10° 13:23:39 10° 18° (NNE) 1,918 5.8 -12.4°
Maximum altitude 13:27:48 68° 102° (ESE) 633 3.3 -11.6°
Drops below altitude 10° 13:31:54 10° 186° (S) 1,899 5.6 -10.8°
Sets 13:34:03 0° 188° (S) 2,792 6.4 -10.3°
